Location: Melque
(41.0517°N, 4.4694°W)
Time: 12:16:42
(UTC+00:00)

SKYMED 2 - Pass Details

Date: 20 March 2026
Orbit: 622 x 624 km, 97.9° (Epoch: 14 April)

Event Time Altitude Azimuth Distance (km) Brightness Sun altitude
Rises 19:27:32 0° 357° (N) 2,911 7.2 -11.6°
Reaches altitude 10° 19:30:12 10° 340° (NNW) 1,999 6.6 -12.1°
Maximum altitude 19:33:19 20° 294° (WNW) 1,464 6.6 -12.7°
Drops below altitude 10° 19:36:25 10° 248° (WSW) 1,988 7.0 -13.3°
Sets 19:39:05 0° 231° (SW) 2,890 7.6 -13.8°
